[[{"header":{"parameterUnit":"m.s-1","parameterCategory":1,"la1":30.2991,"la2":30.254,"lo1":-89.0895,"lo2":-89.0444,"dy":0.0017,"dx":0.0017,"nx":28,"ny":28,"refTime":"2023-06-19T21:00:00:Z","depth":0,"parameterNumber":2,"parameterNumberName":"U-component_of_WINDS"},"data":[0,0,0,0,0,0,0,0,0,0,0,0,0,0,0,0,0,0,0,0,0,0,0,0,0,0,0,0,0,0,0,0,0,0,0,0,0,0,0,0,0,0,0,0,0,0,0,0,0,0,0,0,0,0,0,0,0,0,3.8337,3.8337,0,3.8364,3.8364,3.8364,3.8325,3.8323,3.8322,3.832,3.8357,3.8359,3.8361,0,0,0,0,0,0,0,0,0,0,0,0,0,3.826,3.8262,3.8337,3.8337,3.8338,3.8363,3.8364,3.8364,3.8325,3.8323,3.8321,3.832,3.8356,3.8358,3.8361,0,0,0,0,0,0,0,0,0,0,0,0,0,3.8291,3.8262,3.8337,3.8321,3.832,3.8363,3.8364,3.8364,3.8325,3.8323,3.8321,3.8319,3.8355,3.8358,3.8362,3.8425,0,0,3.8372,3.8373,0,0,0,0,0,0,0,0,3.8289,3.8294,3.8323,3.8322,3.8321,3.8338,3.835,3.8385,3.8326,3.8323,3.832,3.8318,3.8353,3.8356,3.8366,3.8427,3.8428,3.8372,3.8374,3.8376,3.8377,0,0,0,0,0,0,0,3.8287,3.8293,3.8348,3.8323,3.8322,3.8315,3.8317,3.8357,3.835,3.8323,3.832,3.8324,3.8352,3.8363,3.8367,3.8429,3.8372,3.8375,3.8377,3.8379,3.8543,3.8545,0,0,0,0,0,0,3.8286,3.8291,3.8347,3.8348,3.8299,3.8318,3.832,3.8335,3.8349,3.8349,3.8325,3.8322,3.8358,3.8363,3.8368,3.8442,3.8376,3.8379,3.8381,3.8541,3.8544,3.8546,0,0,0,0,0,0,3.8284,3.8291,3.8346,3.8319,3.8325,3.8322,3.8338,3.8337,3.8347,3.8351,3.835,3.8337,3.8357,3.8363,3.841,3.8443,3.8381,3.8384,3.8538,3.8542,3.8545,3.8592,0,0,0,0,0,0,3.8282,3.8291,3.8313,3.832,3.8327,3.8385,3.834,3.8339,3.8352,3.8348,3.8362,3.8362,3.8355,3.8406,3.8414,3.8447,3.8386,3.8535,3.854,3.8544,3.8588,3.8597,3.8605,0,0,0,0,0,3.828,3.8327,3.8314,3.8321,3.8354,3.8387,3.8392,3.838,3.8355,3.8379,3.8381,3.8362,3.8438,3.8411,3.842,3.8454,3.8533,3.8538,3.8543,3.8584,3.8595,3.8605,0,0,0,0,0,0,3.8328,3.8328,3.8313,3.8364,3.8376,3.838,3.8409,3.8393,3.8414,3.8409,3.8397,3.8401,3.8451,3.8458,3.8427,3.8516,3.8482,3.8489,3.851,3.852,3.8529,3.8526,3.8389,0,0,0,0,0,3.8344,3.8368,3.8368,3.8413,3.8419,3.8414,3.8428,3.8418,3.8431,3.8436,3.8442,3.8457,3.8485,3.8503,3.8529,3.8589,3.8592,3.8618,3.8626,3.8633,3.8639,3.8672,3.8683,3.8563,3.8563,3.8563,0,0,3.8378,3.8381,3.8398,3.8423,3.843,3.8458,3.8418,3.8449,3.847,3.8442,3.8485,3.8491,3.8508,3.8561,3.8585,3.8568,3.8673,3.864,3.8645,3.8648,3.8678,3.8689,3.87,3.8567,3.8566,3.8566,0,0,3.8454,3.8459,3.8495,3.8504,3.8515,3.8511,3.852,3.8527,3.8528,3.8571,3.855,3.8577,3.8625,3.8637,3.865,3.8731,3.8714,3.874,3.8784,3.8816,3.8825,3.8834,3.8862,3.8872,3.8746,3.8747,3.8747,0,3.8495,3.8533,3.8518,3.8549,3.8561,3.8534,3.8573,3.8583,3.8603,3.8613,3.8594,3.8652,3.8662,3.8718,3.8737,3.8749,3.876,3.8738,3.8825,3.8833,3.884,3.8868,3.8878,3.8749,3.8749,3.8749,3.8749,0,3.8584,3.8611,3.864,3.8656,3.8672,3.8708,3.87,3.8718,3.8707,3.8706,3.8752,3.8762,3.8789,3.8802,3.8793,3.8857,3.8846,3.8826,3.8791,3.8855,3.888,3.889,3.8754,3.8753,3.8752,3.8751,0,0,3.8689,3.8696,3.8707,3.8714,3.8724,3.8746,3.8782,3.8805,3.8821,3.8837,3.8867,3.8908,3.8888,3.8903,3.8896,3.8924,3.8987,3.89,3.89,3.8915,3.9058,3.9073,3.9085,3.8976,3.8978,3.898,3.9057,0,3.8763,3.8819,3.8807,3.8864,3.8889,3.8864,3.8895,3.8907,3.8907,3.8931,3.8933,3.8961,3.8934,3.8943,3.8969,3.8973,3.9015,3.8968,3.9006,3.9007,3.9001,3.9098,3.9113,3.9185,3.9066,3.9068,3.9069,0,3.8856,3.8872,3.893,3.8936,3.8947,3.8974,3.8994,3.9017,3.9031,3.9029,3.9045,3.9033,3.907,3.9035,3.9088,3.9056,3.9072,3.9076,3.9079,3.9081,3.9041,3.9102,3.9208,3.9218,3.9085,3.9084,3.9083,0,3.8926,3.8962,3.9001,3.9009,3.9017,3.9037,3.9042,3.9053,3.9068,3.9088,3.9097,3.9122,3.9136,3.9157,3.9152,3.9127,3.9206,3.9171,3.9208,3.9208,3.9225,3.9223,3.9333,3.9236,3.9236,3.9236,3.9236,0,3.9009,3.9045,3.9032,3.9056,3.9098,3.9085,3.9127,3.913,3.914,3.9166,3.9148,3.9174,3.9167,3.9193,3.9191,3.9235,3.9242,3.9243,3.9242,3.9244,3.9244,3.9253,3.9248,3.9239,3.9238,3.9237,3.9237,0,3.9092,3.9085,3.9126,3.913,3.9132,3.9162,3.9167,3.9192,3.9191,3.9224,3.9232,3.9232,3.9262,3.9259,3.9295,3.9293,3.9347,3.9341,3.9342,3.934,3.9376,3.9373,3.9495,3.9511,3.9405,3.9406,3.9406,0,3.9144,3.9172,3.9178,3.9193,3.9198,3.9223,3.9237,3.9227,3.9243,3.9261,3.9284,3.9311,3.9333,3.9383,3.9388,3.9415,3.9409,3.945,3.9413,3.9414,3.9409,3.9406,3.941,3.9457,3.9458,3.9459,3.946,0,3.9238,3.9233,3.9253,3.9271,3.9288,3.9304,3.9317,3.9332,3.9323,3.9343,3.9371,3.9388,3.9423,3.9451,3.9477,3.9486,3.9472,3.9472,3.9481,3.9483,3.9482,3.9483,3.936,3.9469,3.9468,3.9467,3.9467,3.9466,3.9307,3.933,3.9337,3.936,3.9369,3.9382,3.9405,3.9406,3.9429,3.9454,3.9448,3.9481,3.9496,3.9528,3.954,3.9568,3.9553,3.9568,3.9571,3.9574,3.9578,3.9478,3.9573,3.9572,3.9572,3.9572,3.9572,0,3.9398,3.9402,3.9423,3.9441,3.946,3.9443,3.9458,3.9476,3.9504,3.9517,3.9538,3.9573,3.9601,3.9608,3.9635,3.9656,3.9651,3.9664,3.9662,3.9664,3.959,3.9578,3.9668,3.9668,3.9668,3.9668,3.9668,3.9668,3.9448,3.9485,3.9481,3.9524,3.9529,3.9558,3.9568,3.9582,3.9592,3.963,3.9652,3.9655,3.9667,3.9696,3.9722,3.9723,3.9734,3.975,3.9749,3.9679,3.967,3.966,3.9649,3.9753,3.9753,3.9821,3.9822,3.9823]},{"header":{"parameterUnit":"m.s-1","parameterCategory":1,"la1":30.2991,"la2":30.254,"lo1":-89.0895,"lo2":-89.0444,"dy":0.0017,"dx":0.0017,"nx":28,"ny":28,"refTime":"2023-06-19T21:00:00:Z","depth":0,"parameterNumber":3,"parameterNumberName":"V-component_of_WINDS"},"data":[0,0,0,0,0,0,0,0,0,0,0,0,0,0,0,0,0,0,0,0,0,0,0,0,0,0,0,0,0,0,0,0,0,0,0,0,0,0,0,0,0,0,0,0,0,0,0,0,0,0,0,0,0,0,0,0,0,0,1.893,1.8934,0,1.9285,1.9289,1.9293,1.9273,1.9268,1.9262,1.9257,1.9648,1.9662,1.9677,0,0,0,0,0,0,0,0,0,0,0,0,0,1.8263,1.8275,1.8929,1.8934,1.8938,1.9284,1.9289,1.9294,1.9274,1.9267,1.9261,1.9255,1.9643,1.9661,1.9679,0,0,0,0,0,0,0,0,0,0,0,0,0,1.8579,1.8279,1.8929,1.8969,1.8976,1.9283,1.9289,1.9295,1.9275,1.9267,1.9259,1.9252,1.9637,1.9659,1.9681,1.9979,0,0,1.9751,1.9761,0,0,0,0,0,0,0,0,1.8561,1.8604,1.8959,1.8967,1.8975,1.9226,1.9197,1.9525,1.9277,1.9163,1.9257,1.9248,1.9515,1.9548,1.9632,1.9997,2.0014,1.9753,1.9767,1.9777,1.9783,0,0,0,0,0,0,0,1.8539,1.8588,1.9071,1.8964,1.8975,1.8979,1.9015,1.9259,1.938,1.9172,1.9171,1.9212,1.9519,1.961,1.9641,2.0019,1.9753,1.9773,1.9787,1.9796,2.0654,2.0663,0,0,0,0,0,0,1.8505,1.857,1.906,1.9081,1.8744,1.8997,1.9038,1.9154,1.9376,1.9402,1.9218,1.921,1.9575,1.9615,1.9655,2.0022,1.9777,1.9798,1.9811,2.0645,2.0656,2.0666,0,0,0,0,0,0,1.849,1.8548,1.9045,1.8826,1.8889,1.9017,1.9148,1.9165,1.9256,1.9411,1.9435,1.9288,1.957,1.9623,1.9898,2.0035,1.9808,1.9829,2.0634,2.0648,2.0661,2.0754,0,0,0,0,0,0,1.8471,1.8543,1.865,1.8828,1.8901,1.9274,1.9156,1.9178,1.9292,1.9285,1.9483,1.9509,1.9568,1.9864,1.9921,2.0062,1.9847,2.0623,2.064,2.0657,2.074,2.0769,2.0795,0,0,0,0,0,1.8447,1.8667,1.8656,1.8715,1.9036,1.9281,1.9324,1.9381,1.9303,1.9417,1.9518,1.9502,2.001,1.9892,1.9956,2.0106,2.0614,2.0635,2.0655,2.0727,2.0764,2.0794,0,0,0,0,0,0,1.8511,1.8691,1.868,1.8962,1.9106,1.9277,1.9422,1.9417,1.9592,1.9578,1.965,1.9695,1.9972,2.0067,1.9933,2.041,2.0304,2.0338,2.0337,2.0372,2.0399,2.0372,1.9866,0,0,0,0,0,1.8555,1.8731,1.8883,1.9118,1.9189,1.9293,1.9402,1.9433,1.9589,1.9652,1.9772,1.9931,2.0127,2.0255,2.0443,2.0753,2.0801,2.0889,2.0916,2.0938,2.0968,2.1146,2.1189,2.0733,2.0733,2.0732,0,0,1.8654,1.8774,1.8882,1.9133,1.9248,1.9437,1.9345,1.9548,1.9692,1.9686,1.995,2.0046,2.0229,2.0523,2.066,2.0611,2.1105,2.0964,2.0981,2.0999,2.1171,2.1214,2.1253,2.0747,2.0744,2.0742,0,0,1.8929,1.9035,1.9243,1.9359,1.9531,1.96,1.965,1.9824,1.9884,2.0149,2.015,2.0328,2.0662,2.0793,2.0904,2.1233,2.1229,2.1294,2.1439,2.1611,2.1647,2.168,2.1802,2.1845,2.1322,2.1323,2.1323,0,1.9032,1.9306,1.9354,1.9557,1.9672,1.9667,1.9885,1.9998,2.0228,2.0311,2.0251,2.0672,2.0796,2.1123,2.1203,2.1292,2.1359,2.1272,2.1636,2.167,2.1701,2.1819,2.1864,2.133,2.1329,2.1328,2.1327,0,1.9427,1.9619,1.9769,1.9981,2.0113,2.0323,2.0411,2.054,2.0562,2.0639,2.0915,2.1062,2.1282,2.1362,2.1388,2.1697,2.1662,2.1619,2.1515,2.175,2.1863,2.1908,2.134,2.1337,2.1335,2.1333,0,0,1.975,1.9986,2.0041,2.0139,2.0331,2.0486,2.0701,2.0907,2.102,2.118,2.1367,2.1651,2.1613,2.1739,2.178,2.1931,2.2189,2.1871,2.1876,2.1928,2.2547,2.258,2.263,2.2186,2.2194,2.2202,2.2533,0,2.0048,2.0416,2.0467,2.0798,2.0981,2.0982,2.117,2.1314,2.1394,2.1568,2.1661,2.1861,2.1793,2.187,2.2019,2.2125,2.2315,2.2102,2.237,2.2379,2.2325,2.2688,2.2723,2.3028,2.2577,2.2584,2.2589,0,2.0442,2.0605,2.0952,2.1122,2.1201,2.1367,2.1565,2.1728,2.1896,2.1944,2.2085,2.2109,2.2342,2.2225,2.2552,2.2406,2.252,2.259,2.2603,2.2633,2.25,2.2732,2.3126,2.3173,2.2658,2.2653,2.2648,0,2.0647,2.0955,2.1203,2.1287,2.1491,2.161,2.1703,2.186,2.1984,2.216,2.2242,2.2446,2.2559,2.2721,2.2803,2.2709,2.3127,2.3016,2.3182,2.318,2.3271,2.3265,2.3692,2.3339,2.3338,2.3337,2.3336,0,2.0975,2.1189,2.1298,2.1451,2.1694,2.1755,2.1997,2.2087,2.2229,2.2407,2.2424,2.2593,2.2689,2.2875,2.2942,2.3206,2.3257,2.331,2.3325,2.331,2.3303,2.3387,2.3369,2.3349,2.3347,2.3344,2.3342,0,2.1245,2.1326,2.1597,2.1767,2.1816,2.1988,2.2139,2.2293,2.2372,2.2598,2.2656,2.2784,2.3004,2.3101,2.3375,2.342,2.3724,2.3723,2.3664,2.3671,2.3832,2.3817,2.4331,2.4405,2.3999,2.4002,2.4005,0,2.1449,2.1612,2.1799,2.1915,2.2009,2.2197,2.2322,2.2392,2.2523,2.2728,2.286,2.3079,2.3257,2.3612,2.3736,2.3948,2.3955,2.4121,2.3987,2.3968,2.3963,2.3953,2.3973,2.4146,2.415,2.4153,2.4156,0,2.1804,2.1837,2.201,2.2201,2.2347,2.2503,2.2655,2.2753,2.2849,2.2997,2.3218,2.3356,2.3634,2.3855,2.4075,2.4181,2.419,2.4196,2.4247,2.4234,2.4194,2.4222,2.3734,2.4185,2.4182,2.418,2.4178,2.4177,2.2051,2.2197,2.2352,2.2548,2.2669,2.2812,2.2965,2.3063,2.3246,2.3471,2.3505,2.3744,2.3916,2.421,2.4325,2.4519,2.448,2.4552,2.4571,2.4588,2.46,2.416,2.456,2.4559,2.4559,2.4558,2.4557,0,2.241,2.2509,2.2688,2.2898,2.3055,2.3039,2.3209,2.3344,2.355,2.3705,2.388,2.4139,2.4354,2.4495,2.4715,2.4845,2.4854,2.4901,2.4894,2.492,2.462,2.4556,2.4889,2.4889,2.4889,2.4889,2.4889,2.4889,2.2614,2.2863,2.2916,2.3229,2.3331,2.3557,2.3657,2.3793,2.3917,2.4202,2.4378,2.4465,2.4619,2.4851,2.5051,2.5088,2.5171,2.522,2.5256,2.4974,2.494,2.4907,2.4847,2.5236,2.5237,2.554,2.5542,2.5545]}]]